East Taunton, MA

12:50 PM EDT on September 26, 2016 (GMT -0400)
Taunton Municipal

Weather History for KTAN - September, 2011

Change the Weather History Date:

Sunday, September 18, 2011

  Actual Average Record
Temperature  
Mean Temperature 54 °F -  
Max Temperature 66 °F 72 °F 90 °F (1991)
Min Temperature 42 °F 51 °F 32 °F (1950)
Degree Days  
Heating Degree Days 11    
Growing Degree Days 4 (Base 50)    
Moisture  
Dew Point 45 °F    
Average Humidity 83    
Maximum Humidity 100    
Minimum Humidity 52    
Precipitation  
Precipitation 0.00 in - - ()
Sea Level Pressure  
Sea Level Pressure 30.41 in    
Wind  
Wind Speed 2 mph (ENE)    
Max Wind Speed 12 mph    
Max Gust Speed 21 mph    
Visibility 6 miles    
Events Fog    
Averages and records for this station are not official NWS values.
T = Trace of Precipitation, MM = Missing Value Source: NWS Daily Summary

Daily Weather History Graph

Daily Weather History Graph

Search for Another Location

Airport or City:

Trip Planner

Search our weather history database for the weather conditions in past years. The results will help you decide how hot, cold, wet, or windy it might be!

Date:

Astronomy

Sep. 18, 2011 Rise Set
Actual Time 6:27 AM EDT 6:48 PM EDT
Civil Twilight 5:59 AM EDT 7:16 PM EDT
Nautical Twilight 5:26 AM EDT 7:49 PM EDT
Astronomical Twilight 4:52 AM EDT 8:23 PM EDT
Moon 9:55 PM EDT (9/18) 12:28 PM EDT (9/18)
Length of Visible Light 13h 17m
Length of Day
12h 21m
Waning Gibbous, 68% of the Moon is Illuminated
Sep 18
Waning Gibbous
Sep 20
Last Quarter
Sep 27
New
Oct 3
First Quarter
Oct 11
Full

Hourly Weather History & Observations

Time (EDT) Temp. Dew Point Humidity Pressure Visibility Wind Dir Wind Speed Gust Speed Precip Events Conditions
12:52 AM 44.1 °F 43.0 °F 96% 30.45 in 3.0 mi Calm Calm - N/A   Clear
1:22 AM 42.8 °F 42.8 °F 100% 30.44 in 1.8 mi Calm Calm - N/A   Clear
1:29 AM 42.8 °F 42.8 °F 100% 30.44 in 0.8 mi Calm Calm - N/A   Clear
1:41 AM 42.8 °F 42.8 °F 100% 30.44 in 1.0 mi Calm Calm - N/A   Mist
1:43 AM 42.8 °F 41.0 °F 93% 30.44 in 1.5 mi Calm Calm - N/A   Partly Cloudy
1:48 AM 42.8 °F 41.0 °F 93% 30.44 in 0.8 mi Calm Calm - N/A   Mist
1:52 AM 42.1 °F 41.0 °F 96% 30.44 in 0.5 mi Calm Calm - N/A Fog Fog
2:02 AM 42.8 °F 42.8 °F 100% 30.44 in 1.2 mi Calm Calm - N/A   Partly Cloudy
2:34 AM 42.8 °F 42.8 °F 100% 30.43 in 2.0 mi Calm Calm - N/A   Partly Cloudy
2:43 AM 42.8 °F 42.8 °F 100% 30.43 in 6.0 mi Calm Calm - N/A   Clear
2:52 AM 44.1 °F 43.0 °F 96% 30.44 in 9.0 mi Calm Calm - N/A   Partly Cloudy
3:52 AM 46.0 °F 45.0 °F 96% 30.43 in 10.0 mi Calm Calm - N/A   Clear
5:52 AM 48.0 °F 46.9 °F 96% 30.44 in 10.0 mi Calm Calm - N/A   Mostly Cloudy
6:52 AM 48.0 °F 46.9 °F 96% 30.45 in 10.0 mi Calm Calm - N/A   Mostly Cloudy
8:52 AM 60.1 °F 50.0 °F 69% 30.45 in 10.0 mi NE 4.6 mph - N/A   Clear
9:52 AM 63.0 °F 46.0 °F 54% 30.45 in 10.0 mi ENE 8.1 mph 18.4 mph N/A   Partly Cloudy
10:52 AM 66.0 °F 48.0 °F 52% 30.45 in 10.0 mi Variable 5.8 mph 16.1 mph N/A   Mostly Cloudy
11:52 AM 62.1 °F 48.0 °F 60% 30.43 in 10.0 mi ENE 10.4 mph - N/A   Mostly Cloudy
12:52 PM 64.9 °F 48.0 °F 54% 30.42 in 10.0 mi East 11.5 mph 17.3 mph N/A   Partly Cloudy
1:52 PM 64.0 °F 46.9 °F 54% 30.40 in 10.0 mi East 9.2 mph 17.3 mph N/A   Overcast
2:52 PM 63.0 °F 46.0 °F 54% 30.39 in 10.0 mi East 9.2 mph 18.4 mph N/A   Mostly Cloudy
3:52 PM 63.0 °F 46.0 °F 54% 30.38 in 10.0 mi NE 8.1 mph 16.1 mph N/A   Scattered Clouds
4:52 PM 62.1 °F 45.0 °F 53% 30.38 in 10.0 mi ENE 9.2 mph 20.7 mph N/A   Scattered Clouds
5:52 PM 61.0 °F 46.0 °F 58% 30.38 in 10.0 mi Variable 4.6 mph - N/A   Partly Cloudy
6:52 PM 55.9 °F 46.9 °F 72% 30.38 in 10.0 mi Calm Calm - N/A   Clear
7:52 PM 48.9 °F 46.9 °F 93% 30.37 in 10.0 mi Calm Calm - N/A   Clear
8:52 PM 46.0 °F 45.0 °F 96% 30.37 in 10.0 mi Calm Calm - N/A   Clear
9:52 PM 45.0 °F 44.1 °F 97% 30.36 in 10.0 mi Calm Calm - N/A   Clear
10:33 PM 44.6 °F 42.8 °F 93% 30.36 in 1.5 mi Calm Calm - N/A   Clear
10:52 PM 43.0 °F 42.1 °F 97% 30.35 in 0.8 mi Calm Calm - N/A   Clear
11:34 PM 42.8 °F 42.8 °F 100% 30.34 in 0.2 mi Calm Calm - N/A Fog Fog